• MPC Preparation (Info)

  • MPEC 2016-B43 : 2016 BU

    The following Minor Planet Electronic Circular may be linked-to from your own Web pages, but must not otherwise be redistributed electronically.

    A form allowing access to any MPEC is at the bottom of this page.


    Read MPEC 2016-B42 Read MPEC 2016-B44


    M.P.E.C. 2016-B43                                Issued 2016 Jan. 20, 16:35 UT
    
         The Minor Planet Electronic Circulars contain information on unusual
             minor planets and routine data on comets.  They are published
        on behalf of Division F of the International Astronomical Union by the
              Minor Planet Center, Smithsonian Astrophysical Observatory,
                              Cambridge, MA 02138, U.S.A.
    
                 Prepared using the Tamkin Foundation Computer Network
    
                                  MPC@CFA.HARVARD.EDU
                URL https://www.minorplanetcenter.net/    ISSN 1523-6714
    
                                        2016 BU
    
    Observations:
         K16B00U* C2016 01 18.43816 11 15 31.70 +18 49 54.8          20.7 VqEB043G96
         K16B00U  C2016 01 18.44650 11 15 21.38 +18 48 35.7          19.8 VqEB043G96
         K16B00U  C2016 01 18.45068 11 15 16.06 +18 47 54.5          20.3 VqEB043G96
         K16B00U  C2016 01 18.52050 11 13 48.63 +18 36 28.2          20.8 VqEB043G96
         K16B00U  C2016 01 18.52101 11 13 47.94 +18 36 22.9          20.7 VqEB043G96
         K16B00U  C2016 01 18.52152 11 13 47.23 +18 36 17.2          20.1 VqEB043G96
         K16B00U  C2016 01 18.54025 11 13 23.86 +18 33 08.1          20.7 VqEB043G96
         K16B00U  C2016 01 18.54076 11 13 23.13 +18 33 01.9          19.9 VqEB043G96
         K16B00U KC2016 01 19.40935 10 55 38.93 +15 51 42.0          18.9 RoEB043291
         K16B00U KC2016 01 19.41015 10 55 37.77 +15 51 31.9          19.1 RoEB043291
         K16B00U KC2016 01 19.41094 10 55 36.59 +15 51 21.9          18.9 RoEB043291
         K16B00U  C2016 01 19.46202 10 54 18.76 +15 40 31.5          21.5 VqEB043G96
         K16B00U  C2016 01 19.46242 10 54 18.01 +15 40 25.1          19.8 VqEB043G96
         K16B00U  C2016 01 19.46320 10 54 16.81 +15 40 15.2          19.6 VqEB043G96
         K16B00U KC2016 01 19.94683 10 42 56.97 +13 47 13.5                qEB043J95
         K16B00U KC2016 01 19.95595 10 42 42.52 +13 45 03.2                qEB043J95
         K16B00U KC2016 01 19.96504 10 42 28.02 +13 42 52.2          19.8 RqEB043J95
         K16B00U  C2016 01 20.43475 10 29 34.67 +11 42 15.0          19.5 VqEB043G96
         K16B00U  C2016 01 20.43531 10 29 33.62 +11 42 05.2          19.6 VqEB043G96
         K16B00U  C2016 01 20.43560 10 29 33.13 +11 42 00.7          19.3 VqEB043G96
    
    Observer details:
    291 LPL/Spacewatch II.  Observer M. T. Read.  1.8-m f/2.7 reflector + CCD.
    G96 Mt. Lemmon Survey.  Observers A. R. Gibbs, A. D. Grauer.  Measurers
        E. J. Christensen, D. C. Fuls, A. R. Gibbs, A. D. Grauer, J. A. Johnson,
        R. A. Kowalski, S. M. Larson, G. J. Leonard, R. G. Matheny, R. L. Seaman,
        F. C. Shelly.  1.5-m reflector + CCD.
    J95 Great Shefford.  Observer P. Birtwhistle.  0.40-m f/6.0 Schmidt-Cassegrain
        + CCD.
    
    Orbital elements:
    2016 BU                                                  Earth MOID = 0.0147 AU
    Epoch 2016 Jan. 13.0 TT = JDT 2457400.5                 MPC
    M 182.73334              (2000.0)            P               Q
    n   1.33922874     Peri.  351.56970     +0.37664561     +0.91628763
    a   0.8151413      Node   300.45818     -0.84043505     +0.27614893
    e   0.2302608      Incl.    9.09225     -0.38962420     +0.29010126
    P   0.74           H   26.6           G   0.15           U   7
    Residuals in seconds of arc
    160118 G96  0.5-  0.3-    160118 G96  0.7-  0.5-    160119 J95  0.6+  0.1-
    160118 G96  0.6+  0.3+    160119 291  0.5-  0.3+    160119 J95  0.0   0.2+
    160118 G96  0.8-  0.7-    160119 291  0.2+  0.1+    160119 J95  0.7-  0.2-
    160118 G96  1.0+  0.5+    160119 291  0.4+  0.0     160120 G96  0.1-  0.3+
    160118 G96  0.3+  0.3+    160119 G96 (2.1+  1.0+)   160120 G96  0.2-  0.1-
    160118 G96  0.7-  0.2-    160119 G96  0.1+  0.3-    160120 G96  0.5+  0.3+
    160118 G96  0.6+  0.5+    160119 G96  0.0   0.1-
    
    Ephemeris:
    2016 BU                  a,e,i = 0.82, 0.23, 9                   q = 0.6274
    Date    TT    R. A. (2000) Decl.     Delta      r     Elong.  Phase     V
    2015 12 21    13 06 23.9 +32 53 55   0.1180  0.9880    88.6    84.5    24.9
    ...
    2016 01 05    12 49 30.1 +30 19 52   0.06921 1.0016   103.4    72.7    23.3
    ...
    2016 01 13    12 17 38.6 +26 45 43   0.04188 1.0027   116.2    61.7    21.9
    ...
    2016 01 19    11 04 29.3 +17 14 35   0.02296 1.0006   136.6    42.5    20.1
    2016 01 20    10 41 20.3 +13 39 19   0.02035 1.0001   142.1    37.1    19.6
    2016 01 21    10 12 49.2 +08 55 07   0.01809 0.9994   148.2    31.3    19.2
    ...
    2016 01 27    05 59 27.8 -28 49 56   0.01887 0.9940   119.5    59.6    20.1
    ...
    2016 02 04    03 30 34.6 -35 12 18   0.04270 0.9830    85.1    92.4    23.0
    ...
    2016 02 19    02 30 25.5 -34 32 25   0.09232 0.9511    63.7   111.3    25.6
    
    A. U. Tomatic                (C) Copyright 2016 MPC           M.P.E.C. 2016-B43
    

    Read MPEC 2016-B42 Read MPEC 2016-B44


    MPEC number:

    Enter an MPEC number in one of the following forms:

    • 1997-B01 (the full form)
    • J97B01 (the packed version of the full form)
    • B01 (the abbreviated form)